Skip Page Navigation
NASA JPL Caltech
NASA Logo - Jet Propulsion Laboratory + View the NASA Portal
+ Center for Near-Earth Object Studies
JPL Home Earth Solar System Stars & Galaxies Technology
JPL Solar System Dynamics
BODIES ORBITS EPHEMERIDES TOOLS PHYSICAL DATA DISCOVERY FAQ SITE MAP
JPL Small-Body Database Browser
Search: [ help ]  
58356 (1995 FR1)
Classification: Main-belt Asteroid          SPK-ID: 2058356
Ephemeris | Orbit Diagram | Orbital Elements | Mission Design | Physical Parameters | Discovery Circumstances ]

[ show orbit diagram ]
Orbital Elements at Epoch 2459396.5 (2021-Jul-01.0) TDB
Reference: JPL 28 (heliocentric ecliptic J2000)
 Element Value Uncertainty (1-sigma)   Units 
e .1557540321607278 3.2937e-08  
a 2.688117549993295 9.8982e-09 au
q 2.269432402659822 8.8966e-08 au
i 13.44389173064397 3.8147e-06 deg
node 4.743133923067354 1.6084e-05 deg
peri 84.42823408794936 2.3389e-05 deg
M 51.85291008744383 1.4234e-05 deg
tp 2459164.631663968470
(2020-Nov-11.13166397)
6.3964e-05 TDB
period 1609.795878969651
4.41
8.8914e-06
2.434e-08
d
yr
n .2236308371160807 1.2352e-09 deg/d
Q 3.106802697326767 1.144e-08 au
  Orbit Determination Parameters
   # obs. used (total)      1725  
   data-arc span      10082 days (27.60 yr)  
   first obs. used      1993-10-24  
   last obs. used      2021-06-01  
   planetary ephem.      DE441  
   SB-pert. ephem.      SB441-N16  
   condition code      0  
   norm. resid. RMS      .49236  
   source      ORB  
   producer      Otto Matic  
   solution date      2021-Jul-08 22:10:49  

Additional Information
 Earth MOID = 1.33184 au 
 Jupiter MOID = 2.20764 au 
 T_jup = 3.317 
[ show covariance matrix ]

Ephemeris | Orbit Diagram | Orbital Elements | Mission Design | Physical Parameters | Discovery Circumstances ]

Physical Parameter Table
Parameter Symbol Value Units Sigma Reference Notes
absolute magnitude H 14.64   n/a MPCxxxxx  
diameter diameter 4.016 km 0.641 urn:nasa:pds:neowise_diameters_albedos::2.0[mainbelt] (http://adsabs.harvard.edu/abs/2011ApJ...741...68M)  
geometric albedo albedo 0.251   0.086 urn:nasa:pds:neowise_diameters_albedos::2.0[mainbelt] (http://adsabs.harvard.edu/abs/2011ApJ...741...68M)  

58356 (1995 FR1)          Discovered 1995-Mar-23 by Spacewatch at Kitt Peak
Reference: 20030614/Numbers.arcLast Updated: 2004-04-19

Alternate Designations
 1995 FR1 = 2002 TL96 
Ephemeris | Orbit Diagram | Orbital Elements | Mission Design | Physical Parameters | Discovery Circumstances ]
ABOUT SSD CREDITS/AWARDS PRIVACY/COPYRIGHT GLOSSARY LINKS
FirstGov 2021-Jul-30 17:52 UT
(server date/time)  
NASA Home Page
Site Manager:   Ryan S. Park
Webmaster  Alan B. Chamberlin